Hourly Weather Barra

Today, 24 November, Tuesday

Time Temperature Precipitation Wind Pressure Humidity
00:00 +25°C° 0 mm 3 mps 726 mmHg 70%
01:00 +24°C° 0 mm 3 mps 725 mmHg 71%
02:00 +24°C° 0 mm 3 mps 725 mmHg 73%
03:00 +23°C° 0 mm 4 mps 725 mmHg 73%
04:00 +22°C° 0 mm 3 mps 725 mmHg 75%
05:00 +22°C° 0 mm 3 mps 726 mmHg 76%
06:00 +21°C° 0 mm 3 mps 726 mmHg 78%
07:00 +24°C° 0 mm 3 mps 726 mmHg 71%
08:00 +26°C° 0 mm 3 mps 727 mmHg 64%
09:00 +29°C° 0 mm 2 mps 727 mmHg 56%
10:00 +30°C° 0 mm 2 mps 727 mmHg 53%
11:00 +31°C° 0 mm 2 mps 727 mmHg 49%
12:00 +34°C° 0 mm 2 mps 727 mmHg 45%
13:00 +34°C° 0 mm 2 mps 726 mmHg 44%
14:00 +34°C° 0 mm 2 mps 725 mmHg 42%
15:00 +34°C° 0 mm 2 mps 724 mmHg 41%
16:00 +31°C° 0 mm 2 mps 724 mmHg 47%
17:00 +30°C° 0 mm 1 mps 724 mmHg 52%
18:00 +28°C° 0 mm 1 mps 724 mmHg 58%
19:00 +28°C° 0 mm 2 mps 724 mmHg 59%
20:00 +27°C° 0 mm 2 mps 725 mmHg 61%
21:00 +27°C° 0 mm 3 mps 725 mmHg 62%
22:00 +26°C° 0 mm 3 mps 725 mmHg 65%
23:00 +25°C° 0 mm 3 mps 725 mmHg 68%

Tomorrow, 25 November, Wednesday

Time Temperature Precipitation Wind Pressure Humidity
00:00 +25°C° 0 mm 3 mps 725 mmHg 71%
01:00 +24°C° 0 mm 3 mps 725 mmHg 72%
02:00 +24°C° 0 mm 3 mps 725 mmHg 73%
03:00 +22°C° 0 mm 3 mps 724 mmHg 75%
04:00 +22°C° 0 mm 3 mps 725 mmHg 75%
05:00 +22°C° 0 mm 3 mps 725 mmHg 76%
06:00 +22°C° 0 mm 3 mps 725 mmHg 77%
07:00 +25°C° 0 mm 4 mps 726 mmHg 69%
08:00 +26°C° 0 mm 4 mps 726 mmHg 61%
09:00 +28°C° 0 mm 4 mps 726 mmHg 54%
10:00 +29°C° 0 mm 4 mps 726 mmHg 51%
11:00 +30°C° 0 mm 3 mps 726 mmHg 48%
12:00 +33°C° 0 mm 3 mps 726 mmHg 45%
13:00 +33°C° 0 mm 3 mps 725 mmHg 45%
14:00 +33°C° 0 mm 3 mps 724 mmHg 44%
15:00 +33°C° 0 mm 3 mps 724 mmHg 44%
16:00 +31°C° 0 mm 3 mps 724 mmHg 50%
17:00 +30°C° 0 mm 2 mps 724 mmHg 55%
18:00 +28°C° 0 mm 2 mps 724 mmHg 61%
19:00 +28°C° 0 mm 3 mps 724 mmHg 63%
20:00 +27°C° 0 mm 3 mps 724 mmHg 65%
21:00 +26°C° 0 mm 3 mps 725 mmHg 67%
22:00 +26°C° 0 mm 3 mps 725 mmHg 66%
23:00 +26°C° 0 mm 4 mps 725 mmHg 66%

Day after tomorrow, 26 November, Thursday

Time Temperature Precipitation Wind Pressure Humidity
00:00 +25°C° 0 mm 4 mps 725 mmHg 66%
01:00 +25°C° 0 mm 4 mps 724 mmHg 66%
02:00 +24°C° 0 mm 3 mps 724 mmHg 67%
03:00 +24°C° 0 mm 3 mps 724 mmHg 68%
04:00 +24°C° 0 mm 3 mps 724 mmHg 70%
05:00 +22°C° 0 mm 3 mps 724 mmHg 73%
06:00 +23°C° 0 mm 2 mps 724 mmHg 75%
07:00 +25°C° 0 mm 3 mps 725 mmHg 69%
08:00 +26°C° 0 mm 3 mps 725 mmHg 62%
09:00 +28°C° 0 mm 4 mps 726 mmHg 56%
10:00 +29°C° 0 mm 4 mps 726 mmHg 54%
11:00 +29°C° 0 mm 3 mps 725 mmHg 53%
12:00 +29°C° 0 mm 3 mps 725 mmHg 51%
13:00 +30°C° 0 mm 3 mps 725 mmHg 50%
14:00 +30°C° 0 mm 3 mps 724 mmHg 48%
15:00 +31°C° 0 mm 3 mps 724 mmHg 47%
16:00 +30°C° 0 mm 2 mps 724 mmHg 51%
17:00 +29°C° 0 mm 1 mps 724 mmHg 55%
18:00 +27°C° 0 mm 1 mps 723 mmHg 60%
19:00 +27°C° 0 mm 1 mps 724 mmHg 61%
20:00 +26°C° 0 mm 1 mps 724 mmHg 62%
21:00 +26°C° 0 mm 2 mps 724 mmHg 64%
22:00 +26°C° 0 mm 2 mps 724 mmHg 66%
23:00 +25°C° 0 mm 2 mps 724 mmHg 69%

27 November, Friday

Time Temperature Precipitation Wind Pressure Humidity
00:00 +25°C° 0 mm 2 mps 724 mmHg 71%
01:00 +24°C° 0 mm 2 mps 724 mmHg 72%
02:00 +24°C° 0 mm 3 mps 723 mmHg 74%
03:00 +24°C° 0 mm 3 mps 723 mmHg 75%
04:00 +24°C° 0 mm 2 mps 724 mmHg 76%
05:00 +24°C° 0 mm 2 mps 724 mmHg 78%
06:00 +23°C° 0 mm 1 mps 724 mmHg 79%
07:00 +25°C° 0 mm 2 mps 725 mmHg 73%
08:00 +27°C° 0 mm 2 mps 725 mmHg 66%
09:00 +28°C° 0 mm 3 mps 726 mmHg 59%
10:00 +30°C° 0 mm 3 mps 726 mmHg 55%
11:00 +31°C° 0 mm 2 mps 725 mmHg 51%
12:00 +32°C° 0 mm 2 mps 725 mmHg 48%
13:00 +32°C° 0 mm 2 mps 725 mmHg 47%
14:00 +32°C° 0 mm 2 mps 724 mmHg 47%
15:00 +32°C° 0 mm 1 mps 723 mmHg 47%
16:00 +30°C° 0 mm 1 mps 723 mmHg 53%
17:00 +27°C° 0 mm 0 mps 723 mmHg 58%
18:00 +26°C° 0 mm 0 mps 723 mmHg 64%
19:00 +27°C° 0 mm 1 mps 724 mmHg 65%
20:00 +27°C° 0 mm 1 mps 724 mmHg 66%
21:00 +26°C° 0 mm 2 mps 724 mmHg 67%
22:00 +26°C° 0 mm 2 mps 724 mmHg 69%
23:00 +26°C° 0 mm 2 mps 724 mmHg 70%

28 November, Saturday

Time Temperature Precipitation Wind Pressure Humidity
00:00 +25°C° 0 mm 2 mps 724 mmHg 72%
01:00 +25°C° 0 mm 3 mps 724 mmHg 73%
02:00 +25°C° 0 mm 3 mps 724 mmHg 73%
03:00 +24°C° 0 mm 3 mps 723 mmHg 74%
04:00 +24°C° 0 mm 3 mps 724 mmHg 75%
05:00 +24°C° 0 mm 3 mps 724 mmHg 77%
06:00 +22°C° 0 mm 3 mps 724 mmHg 78%
07:00 +25°C° 0 mm 3 mps 725 mmHg 70%
08:00 +27°C° 0 mm 3 mps 725 mmHg 62%
09:00 +29°C° 0 mm 3 mps 726 mmHg 54%
10:00 +31°C° 0 mm 3 mps 725 mmHg 50%
11:00 +33°C° 0 mm 3 mps 725 mmHg 46%
12:00 +34°C° 0 mm 3 mps 725 mmHg 42%
13:00 +34°C° 0 mm 3 mps 724 mmHg 42%
14:00 +34°C° 0 mm 2 mps 724 mmHg 41%
15:00 +34°C° 0 mm 2 mps 723 mmHg 40%
16:00 +32°C° 0 mm 2 mps 723 mmHg 45%
17:00 +31°C° 0 mm 2 mps 723 mmHg 50%
18:00 +29°C° 0 mm 2 mps 723 mmHg 55%
19:00 +29°C° 0 mm 2 mps 724 mmHg 56%
20:00 +28°C° 0 mm 3 mps 724 mmHg 57%
21:00 +28°C° 0 mm 4 mps 725 mmHg 59%
22:00 +27°C° 0 mm 4 mps 725 mmHg 62%
23:00 +26°C° 0 mm 4 mps 725 mmHg 65%

29 November, Sunday

Time Temperature Precipitation Wind Pressure Humidity
00:00 +25°C° 0 mm 4 mps 725 mmHg 68%
01:00 +25°C° 0 mm 4 mps 724 mmHg 69%
02:00 +23°C° 0 mm 4 mps 724 mmHg 69%
03:00 +23°C° 0 mm 4 mps 724 mmHg 70%
04:00 +23°C° 0 mm 4 mps 724 mmHg 70%
05:00 +23°C° 0 mm 4 mps 724 mmHg 70%
06:00 +22°C° 0 mm 3 mps 725 mmHg 70%
07:00 +25°C° 0 mm 3 mps 725 mmHg 65%
08:00 +27°C° 0 mm 3 mps 726 mmHg 60%
09:00 +29°C° 0 mm 3 mps 726 mmHg 55%
10:00 +30°C° 0 mm 3 mps 726 mmHg 51%
11:00 +33°C° 0 mm 3 mps 726 mmHg 47%
12:00 +34°C° 0 mm 3 mps 725 mmHg 44%
13:00 +34°C° 0 mm 2 mps 725 mmHg 44%
14:00 +34°C° 0 mm 2 mps 724 mmHg 44%
15:00 +34°C° 0 mm 2 mps 723 mmHg 44%
16:00 +31°C° 0 mm 2 mps 723 mmHg 49%
17:00 +30°C° 0 mm 2 mps 723 mmHg 53%
18:00 +29°C° 0 mm 2 mps 723 mmHg 58%
19:00 +28°C° 0 mm 2 mps 724 mmHg 59%
20:00 +27°C° 0 mm 2 mps 724 mmHg 61%
21:00 +26°C° 0 mm 3 mps 725 mmHg 62%
22:00 +26°C° 0 mm 3 mps 725 mmHg 64%
23:00 +25°C° 0 mm 3 mps 725 mmHg 66%
Show more

We Need Your Consent

Meteoprog and our Service Providers may store and access personal data such as cookies, device identifiers or other similar technologies on your device and process such data to personalise content and ads, as well as provide social media features and to analyse the traffic.

  • Store and/or access information on your device

    Cookies, device identifiers or other information can be stored or accessed on your device for the purposes indicated above.

  • Personalised ads and content, ad and content measurement, audience insights, and products development

    Ads and content can be personalised based on a profile. More data can be added to better personalise ads and content. Ad and content performance can be measured. Insights about the audience who saw the ads and content can be derived. Such data can be used to develop or improve user’s experience, systems and software.

By clicking ‘I Agree’ you will allow the use of indicated cookies, device identifiers, web beacons or other similar technologies. Your settings can be changed in the browser on your device.

For certain purposes, legitimate interests may be relied on, rather than consent. You can read more about this in our Privacy and Cookie Policy.